| time (UTC) | temp F | wind direction | speed MPH | gust MPH | rain 1hr in | rain 24hr in | rain mn in | humidity % | barometer mb |
| 20260502190130 | 68 | 94 | 3.0 | 10.0 | 0.00 | 0.00 | 0.00 | 19 | 1014.0 |
| 20260502184553 | 67 | 78 | 5.0 | 11.0 | 0.00 | 0.00 | 0.00 | 20 | 1014.3 |
| 20260502183049 | 66 | 82 | 4.0 | 9.0 | 0.00 | 0.00 | 0.00 | 19 | 1014.6 |
| 20260502181546 | 66 | 149 | 2.0 | 13.0 | 0.00 | 0.00 | 0.00 | 18 | 1014.9 |
| 20260502170134 | 65 | 36 | 3.0 | 7.0 | 0.00 | 0.00 | 0.00 | 20 | 1015.8 |
| 20260502163055 | 64 | 126 | 5.0 | 9.0 | 0.00 | 0.00 | 0.00 | 21 | 1016.0 |
| 20260502161553 | 62 | 107 | 5.0 | 9.0 | 0.00 | 0.00 | 0.00 | 26 | 1016.1 |
| 20260502160148 | 62 | 71 | 4.0 | 9.0 | 0.00 | 0.00 | 0.00 | 29 | 1016.2 |
| 20260502151550 | 58 | 154 | 4.0 | 7.0 | 0.00 | 0.00 | 0.00 | 33 | 1016.6 |
| 20260502150141 | 56 | 146 | 3.0 | 7.0 | 0.00 | 0.00 | 0.00 | 37 | 1016.8 |
| 20260502123032 | 36 | 274 | 0.0 | 3.0 | 0.00 | 0.00 | 0.00 | 60 | 1017.2 |
| 20260502121542 | 34 | 343 | 1.0 | 2.0 | 0.00 | 0.00 | 0.00 | 60 | 1017.0 |
| 20260502114527 | 34 | 343 | 0.0 | 2.0 | 0.00 | 0.00 | 0.00 | 60 | 1017.1 |
| 20260502113024 | 35 | 343 | 0.0 | 2.0 | 0.00 | 0.00 | 0.00 | 58 | 1017.2 |
| 20260502111522 | 36 | 343 | 0.0 | 2.0 | 0.00 | 0.00 | 0.00 | 56 | 1017.1 |
| 20260502110022 | 36 | 343 | 0.0 | 2.0 | 0.00 | 0.00 | 0.00 | 57 | 1017.2 |
| 20260502104537 | 36 | 343 | 1.0 | 3.0 | 0.00 | 0.00 | 0.00 | 56 | 1017.1 |
| 20260502103021 | 36 | 343 | 2.0 | 3.0 | 0.00 | 0.00 | 0.00 | 55 | 1017.2 |
| 20260502101514 | 37 | 343 | 0.0 | 0.0 | 0.00 | 0.00 | 0.00 | 54 | 1017.1 |
| 20260502091511 | 39 | 343 | 3.0 | 6.0 | 0.00 | 0.00 | 0.00 | 52 | 1016.8 |
| 20260502070041 | 47 | 271 | 7.0 | 10.0 | 0.00 | 0.00 | 0.00 | 39 | 1017.2 |
| 20260502064544 | 47 | 272 | 4.0 | 7.0 | 0.00 | 0.00 | 0.00 | 39 | 1017.1 |
| 20260502063036 | 47 | 267 | 3.0 | 8.0 | 0.00 | 0.00 | 0.00 | 39 | 1017.2 |
| 20260502061534 | 47 | 267 | 5.0 | 9.0 | 0.00 | 0.00 | 0.00 | 39 | 1017.3 |
| 20260502060034 | 47 | 273 | 7.0 | 11.0 | 0.00 | 0.00 | 0.00 | 39 | 1017.2 |
| 20260502054532 | 47 | 263 | 5.0 | 11.0 | 0.00 | 0.00 | 0.00 | 40 | 1017.1 |
| 20260502053030 | 46 | 269 | 4.0 | 6.0 | 0.00 | 0.00 | 0.00 | 39 | 1017.0 |
| 20260502051548 | 46 | 259 | 3.0 | 6.0 | 0.00 | 0.00 | 0.00 | 38 | 1017.1 |
| 20260502050030 | 46 | 35 | 2.0 | 4.0 | 0.00 | 0.00 | 0.00 | 38 | 1017.0 |
| 20260502044529 | 47 | 35 | 0.0 | 1.0 | 0.00 | 0.00 | 0.00 | 38 | 1016.9 |
| 20260502043028 | 47 | 35 | 0.0 | 5.0 | 0.00 | 0.00 | 0.00 | 37 | 1017.0 |
| 20260502041529 | 48 | 35 | 4.0 | 5.0 | 0.00 | 0.00 | 0.00 | 36 | 1016.8 |
| 20260502040028 | 48 | 35 | 0.0 | 3.0 | 0.00 | 0.00 | 0.00 | 36 | 1016.6 |
| 20260502034537 | 50 | 35 | 1.0 | 2.0 | 0.00 | 0.00 | 0.00 | 35 | 1016.5 |
| 20260502033033 | 51 | 35 | 2.0 | 5.0 | 0.00 | 0.00 | 0.00 | 33 | 1016.3 |
| 20260502031525 | 51 | 35 | 4.0 | 6.0 | 0.00 | 0.00 | 0.00 | 33 | 1015.9 |
| 20260502030026 | 51 | 35 | 4.0 | 5.0 | 0.00 | 0.00 | 0.00 | 32 | 1015.8 |
| 20260502024530 | 51 | 35 | 3.0 | 5.0 | 0.00 | 0.00 | 0.00 | 33 | 1015.5 |
| 20260502023027 | 52 | 35 | 2.0 | 5.0 | 0.00 | 0.00 | 0.00 | 32 | 1015.3 |
| 20260502021523 | 53 | 35 | 4.0 | 5.0 | 0.00 | 0.00 | 0.00 | 31 | 1015.1 |
| 20260502020023 | 55 | 35 | 3.0 | 6.0 | 0.00 | 0.00 | 0.00 | 29 | 1014.8 |
| 20260502014526 | 55 | 32 | 5.0 | 8.0 | 0.00 | 0.00 | 0.00 | 28 | 1014.6 |
| 20260502013021 | 57 | 26 | 5.0 | 9.0 | 0.00 | 0.00 | 0.00 | 27 | 1014.4 |
| 20260502011527 | 58 | 32 | 5.0 | 11.0 | 0.00 | 0.00 | 0.00 | 26 | 1014.2 |
| 20260502010019 | 59 | 28 | 6.0 | 9.0 | 0.00 | 0.00 | 0.00 | 25 | 1014.2 |
| 20260502004519 | 60 | 39 | 8.0 | 13.0 | 0.00 | 0.00 | 0.00 | 24 | 1014.1 |
| 20260502003020 | 62 | 40 | 12.0 | 16.0 | 0.00 | 0.00 | 0.00 | 22 | 1014.1 |
| 20260502001517 | 63 | 57 | 10.0 | 16.0 | 0.00 | 0.00 | 0.00 | 23 | 1014.0 |
| 20260502000016 | 63 | 49 | 13.0 | 19.0 | 0.00 | 0.00 | 0.00 | 21 | 1014.0 |
| 20260501234515 | 65 | 30 | 10.0 | 21.0 | 0.00 | 0.00 | 0.00 | 21 | 1014.0 |
| 20260501233012 | 65 | 40 | 15.0 | 20.0 | 0.00 | 0.00 | 0.00 | 20 | 1014.0 |
| 20260501231522 | 63 | 38 | 4.0 | 8.0 | 0.00 | 0.00 | 0.00 | 20 | 1014.1 |
| 20260501230012 | 63 | 36 | 5.0 | 15.0 | 0.00 | 0.00 | 0.00 | 22 | 1014.1 |
| 20260501224507 | 62 | 61 | 8.0 | 19.0 | 0.00 | 0.00 | 0.00 | 22 | 1014.1 |
| 20260501223006 | 63 | 324 | 13.0 | 17.0 | 0.00 | 0.00 | 0.00 | 20 | 1014.2 |
| 20260501221505 | 65 | 46 | 11.0 | 25.0 | 0.00 | 0.00 | 0.00 | 20 | 1014.3 |
| 20260501220003 | 64 | 315 | 6.0 | 18.0 | 0.00 | 0.00 | 0.00 | 19 | 1014.5 |
| 20260501214612 | 64 | 14 | 13.0 | 17.0 | 0.00 | 0.00 | 0.00 | 19 | 1014.6 |
| 20260501213104 | 65 | 49 | 11.0 | 22.0 | 0.00 | 0.00 | 0.00 | 18 | 1014.9 |
| 20260501211556 | 64 | 28 | 11.0 | 25.0 | 0.00 | 0.00 | 0.00 | 21 | 1015.2 |
| 20260501210015 | 64 | 355 | 5.0 | 27.0 | 0.00 | 0.00 | 0.00 | 19 | 1015.6 |
| 20260501204512 | 63 | 355 | 7.0 | 13.0 | 0.00 | 0.00 | 0.00 | 21 | 1015.7 |
| 20260501203010 | 63 | 23 | 4.0 | 17.0 | 0.00 | 0.00 | 0.00 | 23 | 1016.1 |
| 20260501201508 | 63 | 15 | 12.0 | 23.0 | 0.00 | 0.00 | 0.00 | 22 | 1016.1 |
| 20260501200011 | 63 | 48 | 6.0 | 18.0 | 0.00 | 0.00 | 0.00 | 20 | 1016.4 |
| 20260501194507 | 62 | 82 | 3.0 | 7.0 | 0.00 | 0.00 | 0.00 | 22 | 1016.4 |
| 20260501193003 | 63 | 308 | 4.0 | 8.0 | 0.00 | 0.00 | 0.00 | 22 | 1016.6 |
| 20260501191607 | 61 | 26 | 3.0 | 9.0 | 0.00 | 0.00 | 0.00 | 22 | 1016.7 |